Weather reports worldwide

Advertisment
Trier-Petrisberg, Germany (10609): temperature & dewpoint: 14.10.2018 16:00:00 - 20.10.2018 16:00:00 (CEST)Trier-Petrisberg, Germany (10609): temperature 5cm & temperature -5cm: 14.10.2018 16:00:00 - 20.10.2018 16:00:00 (CEST)Trier-Petrisberg, Germany (10609): temperature -20cm & temperature -100cm: 14.10.2018 16:00:00 - 20.10.2018 16:00:00 (CEST)Trier-Petrisberg, Germany (10609): wind speed & gusts: 14.10.2018 16:00:00 - 20.10.2018 16:00:00 (CEST)Trier-Petrisberg, Germany (10609): wind direction: 14.10.2018 16:00:00 - 20.10.2018 16:00:00 (CEST)Trier-Petrisberg, Germany (10609): reduced air pressure: 14.10.2018 16:00:00 - 20.10.2018 16:00:00 (CEST)Trier-Petrisberg, Germany (10609): visibility: 14.10.2018 16:00:00 - 20.10.2018 16:00:00 (CEST)Trier-Petrisberg, Germany (10609): sunshine duration: 14.10.2018 16:00:00 - 20.10.2018 16:00:00 (CEST)Trier-Petrisberg, Germany (10609): precipitation: 14.10.2018 16:00:00 - 20.10.2018 16:00:00 (CEST)
Date & Time tt [°C] td [°C] tt 5cm [°C] tt -5cm [°C] tt -20cm [°C] tt -100cm [°C] ff [km/h] ff [kn] fx [km/h] fx [kn] dd ppp [hPa] vv [km] sd [min] rr [mm]
20.10.2018 16:00:00 15,9 7,1 18,0 19,2 14,8 15,9 10 6 20 11 NNE 1029,0 34 60 0,0
20.10.2018 15:00:00 15,7 7,5 18,5 18,6 14,3 16,0 9 5 21 12 N 1029,5 20 60 0,0
20.10.2018 14:00:00 14,4 7,4 19,1 16,9 14,0 16,0 8 5 23 12 NNE 1030,0 31 60 0,0
20.10.2018 13:00:00 13,8 7,9 17,2 14,9 13,7 16,0 15 8 26 14 NNE 1030,6 17 60 0,0
20.10.2018 12:00:00 12,0 8,0 14,4 13,1 13,7 16,0 13 7 21 11 NNE 1030,8 15 59 0,0
20.10.2018 11:00:00 10,8 7,4 11,3 11,4 13,7 16,0 11 6 19 10 NE 1030,3 10 51 0,0
20.10.2018 10:00:00 9,0 7,2 8,5 10,4 13,9 16,0 9 5 21 11 NNE 1030,3 8 50 0,0
20.10.2018 09:00:00 8,1 7,4 7,3 10,1 14,0 16,0 12 7 18 10 N 1029,6 6 0 0,0
20.10.2018 08:00:00 8,2 7,6 6,1 10,4 14,2 16,0 13 7 18 10 NNE 1028,9 4,8 0 0,0
20.10.2018 07:00:00 7,8 7,2 4,5 11,0 14,4 16,0 4 2 14 8 NE 1028,4 5 0 0,0
20.10.2018 06:00:00 8,1 7,4 5,7 11,5 14,5 16,0 8 4 14 7 NNE 1027,9 4,1 0 0,0
20.10.2018 05:00:00 9,4 8,4 8,3 11,9 14,6 16,0 8 4 12 6 N 1027,4 9 0 0,0
20.10.2018 04:00:00 9,5 8,6 9,2 11,8 14,8 16,0 7 4 13 7 NNE 1026,9 9 0 0,0
20.10.2018 03:00:00 9,6 8,8 9,0 11,6 15,0 16,0 10 5 15 8 NNE 1026,9 10 0 0,0
20.10.2018 02:00:00 9,0 8,2 6,7 11,9 15,2 16,0 10 5 16 9 NNE 1026,5 8 0 0,0
20.10.2018 01:00:00 9,6 8,6 7,2 12,4 15,4 16,1 10 5 16 9 N 1026,2 9 0 0,0
20.10.2018 00:00:00 9,5 8,7 6,5 13,0 15,6 16,1 9 5 16 8 NNE 1025,7 11 0 0,0
19.10.2018 23:00:00 11,2 9,4 9,2 13,6 15,8 16,1 12 6 16 9 N 1025,5 16 0 0,0
19.10.2018 22:00:00 11,5 9,6 9,5 14,1 16,0 16,1 11 6 18 10 N 1025,3 16 0 0,0
19.10.2018 21:00:00 12,2 9,8 9,9 14,9 16,2 16,1 13 7 17 9 N 1024,6 19 0 0,0
19.10.2018 20:00:00 13,0 10,0 9,6 15,9 16,2 16,1 10 5 14 8 NNE 1024,0 23 0 0,0
19.10.2018 19:00:00 13,8 9,5 11,0 17,4 16,1 16,1 10 5 16 8 NNE 1022,9 20 17 0,0
19.10.2018 18:00:00 16,2 9,7 15,5 19,0 15,9 16,1 10 5 17 9 NNE 1022,2 21 60 0,0
19.10.2018 17:00:00 17,4 9,8 18,0 20,0 15,5 16,2 10 5 17 9 NNE 1022,1 24 60 0,0
19.10.2018 16:00:00 17,1 9,6 20,1 19,9 15,0 16,2 11 6 20 11 N 1022,2 26 60 0,0
19.10.2018 15:00:00 16,6 9,5 20,2 18,9 14,6 16,2 12 6 24 13 NNE 1022,5 19 60 0,0
19.10.2018 14:00:00 15,4 9,4 19,0 17,2 14,2 16,2 15 8 23 12 NNE 1023,1 19 60 0,0
19.10.2018 13:00:00 14,1 9,2 17,7 15,3 14,0 16,2 11 6 24 13 N 1023,8 21 60 0,0
19.10.2018 12:00:00 12,9 8,6 15,1 13,4 13,9 16,2 10 5 24 13 N 1023,9 24 60 0,0
19.10.2018 11:00:00 11,2 8,3 11,8 11,8 13,9 16,3 15 8 24 13 NNE 1024,3 21 60 0,0
19.10.2018 10:00:00 9,5 7,9 9,4 10,7 14,0 16,3 14 7 21 11 NNE 1024,3 16 38 0,0
19.10.2018 09:00:00 8,2 7,4 7,6 10,2 14,2 16,3 11 6 19 10 NNE 1023,8 13 12 0,0
19.10.2018 08:00:00 7,7 7,1 6,1 10,3 14,4 16,3 11 6 17 9 NNE 1023,6 11 0 0,0
19.10.2018 07:00:00 7,6 6,8 5,9 10,6 14,6 16,3 10 6 21 12 NNE 1023,4 10 0 0,0
19.10.2018 06:00:00 8,1 7,5 6,2 10,8 14,8 16,3 12 6 19 10 NNE 1023,1 9 0 0,0
19.10.2018 05:00:00 7,9 7,0 5,7 11,2 15,0 16,3 8 4 18 10 NNE 1023,1 6 0 0,0
19.10.2018 04:00:00 9,3 8,2 7,0 11,5 15,2 16,3 12 6 18 10 NNE 1023,1 12 0 0,0
19.10.2018 03:00:00 9,2 8,3 6,1 12,0 15,4 16,3 9 5 19 10 NNE 1023,2 11 0 0,0
19.10.2018 02:00:00 10,3 8,9 9,1 12,4 15,6 16,3 14 8 22 12 NNE 1023,2 10 0 0,0
19.10.2018 01:00:00 10,7 9,2 9,1 12,8 15,8 16,3 13 7 23 13 NNE 1023,0 10 0 0,0
19.10.2018 00:00:00 11,1 9,4 9,6 13,3 16,0 16,3 12 6 21 11 NNE 1023,0 9 0 0,0
18.10.2018 23:00:00 11,5 9,7 10,0 13,8 16,2 16,3 14 8 26 14 NNE 1022,9 9 0 0,0
18.10.2018 22:00:00 12,3 10,3 11,0 14,3 16,3 16,3 16 9 23 12 NNE 1022,8 9 0 0,0
18.10.2018 21:00:00 12,7 10,5 11,3 15,0 16,5 16,3 14 8 22 12 NNE 1022,6 9 0 0,0
18.10.2018 20:00:00 12,9 10,5 10,2 15,9 16,6 16,3 11 6 23 13 NNE 1022,4 9 0 0,0
18.10.2018 19:00:00 14,1 10,7 12,9 17,0 16,5 16,3 13 7 26 14 NNE 1022,0 10 0 0,0
18.10.2018 18:00:00 15,2 10,8 14,9 18,3 16,4 16,4 17 9 31 17 NNE 1021,7 9 0 0,0
18.10.2018 17:00:00 16,3 11,0 17,3 19,3 16,1 16,4 23 12 35 19 NNE 1021,4 11 29 0,0
18.10.2018 16:00:00 16,7 11,0 19,1 19,6 15,7 16,4 17 9 29 16 NE 1021,4 13 60 0,0
18.10.2018 15:00:00 16,8 11,3 19,6 18,6 15,4 16,4 17 9 28 15 NNE 1021,3 11 60 0,0
18.10.2018 14:00:00 15,9 11,2 18,0 17,0 15,2 16,4 18 10 27 15 NNE 1021,7 9 31 0,0
18.10.2018 13:00:00 15,4 11,2 18,1 15,7 15,1 16,4 16 8 27 15 NNE 1022,0 8 5 0,0
18.10.2018 12:00:00 14,1 11,1 15,1 14,7 15,0 16,4 11 6 18 10 NE 1022,4 7 0 0,0
18.10.2018 11:00:00 13,7 11,0 14,4 13,9 15,0 16,4 11 6 18 10 NNE 1022,4 7 0 0,0
18.10.2018 10:00:00 12,7 10,6 13,2 13,2 15,1 16,4 10 5 18 10 NNE 1022,1 7 0 0,0
18.10.2018 09:00:00 12,1 10,3 12,1 12,6 15,2 16,4 11 6 19 10 NE 1022,1 8 0 0,0
18.10.2018 08:00:00 11,3 10,0 11,2 12,1 15,3 16,4 14 7 23 12 NNE 1021,5 6 0 0,0
18.10.2018 07:00:00 10,0 8,5 8,7 12,3 15,5 16,4 12 6 17 9 NNE 1020,8 19 0 0,0
18.10.2018 06:00:00 10,4 8,5 8,5 12,6 15,7 16,4 11 6 14 8 NNE 1020,5 27 0 0,0
18.10.2018 05:00:00 10,8 8,7 8,7 12,8 15,9 16,4 10 5 14 7 N 1020,1 27 0 0,0
18.10.2018 04:00:00 10,9 8,7 8,0 13,2 16,1 16,4 7 4 12 6 NNE 1020,3 38 0 0,0
18.10.2018 03:00:00 11,9 9,0 9,3 13,5 16,3 16,4 8 5 14 8 NNE 1020,3 42 0 0,0
18.10.2018 02:00:00 12,0 9,0 8,6 13,8 16,5 16,4 8 4 11 6 NNE 1020,3 48 0 0,0
18.10.2018 01:00:00 12,4 9,1 9,0 14,3 16,7 16,4 10 5 18 10 NNE 1020,5 60 0 0,0
18.10.2018 00:00:00 13,2 8,6 10,5 14,8 16,9 16,4 11 6 16 9 N 1020,2 70 0 0,0
17.10.2018 23:00:00 13,7 8,9 10,3 15,3 17,1 16,4 7 4 21 11 NNE 1019,9 70 0 0,0
17.10.2018 22:00:00 15,1 9,2 11,0 16,0 17,3 16,4 10 6 15 8 N 1019,3 70 0 0,0
17.10.2018 21:00:00 16,8 9,3 13,0 16,8 17,4 16,4 10 6 14 8 N 1018,5 70 0 0,0
17.10.2018 20:00:00 17,3 9,0 13,0 18,0 17,4 16,5 8 5 13 7 NE 1018,2 70 0 0,0
17.10.2018 19:00:00 18,6 8,9 15,0 19,5 17,3 16,5 11 6 18 10 NNE 1017,6 70 1 0,0
17.10.2018 18:00:00 21,0 9,0 19,2 21,1 17,0 16,5 8 5 13 7 NNE 1017,1 70 60 0,0
17.10.2018 17:00:00 22,5 9,3 22,6 21,9 16,6 16,5 8 4 16 9 NNE 1016,9 70 60 0,0
17.10.2018 16:00:00 22,5 10,0 24,7 22,0 16,0 16,5 13 7 23 13 NNE 1017,1 54 60 0,0
17.10.2018 15:00:00 22,1 9,5 24,9 21,0 15,5 16,5 13 7 21 11 NNE 1017,3 70 60 0,0
17.10.2018 14:00:00 20,1 9,7 23,9 19,1 15,1 16,5 6 4 16 8 NNE 1018,1 47 60 0,0
17.10.2018 13:00:00 17,5 9,7 22,5 16,8 14,8 16,6 3 2 13 7 S 1018,9 40 59 0,0
17.10.2018 12:00:00 14,2 8,8 17,3 14,7 14,7 16,6 4 2 9 5 N 1019,9 39 60 0,0
17.10.2018 11:00:00 12,3 8,8 14,4 12,8 14,7 16,6 3 1 8 4 SSW 1020,0 26 60 0,0
17.10.2018 10:00:00 10,2 8,1 9,8 11,8 14,8 16,6 5 3 10 6 N 1020,2 21 50 0,0
17.10.2018 09:00:00 9,0 8,1 8,6 11,2 15,0 16,6 6 3 15 8 NNE 1020,1 13 29 0,0
17.10.2018 08:00:00 8,2 7,5 6,9 11,1 15,2 16,6 10 5 14 8 N 1020,0 15 0 0,0
17.10.2018 07:00:00 8,0 7,3 5,4 11,4 15,4 16,6 6 3 11 6 NNE 1020,1 13 0 0,0
17.10.2018 06:00:00 8,4 7,3 6,4 11,7 15,7 16,6 3 1 7 4 ENE 1019,8 17 0 0,0
17.10.2018 05:00:00 9,2 8,1 6,0 12,0 15,9 16,6 5 3 10 5 NNE 1020,0 22 0 0,0
17.10.2018 04:00:00 9,2 7,9 6,0 12,5 16,1 16,6 5 3 13 7 NE 1020,0 24 0 0,0
17.10.2018 03:00:00 9,9 8,1 6,6 12,9 16,4 16,6 8 4 10 5 N 1019,8 31 0 0,0
17.10.2018 02:00:00 11,0 8,7 7,6 13,5 16,6 16,6 7 4 11 6 NNE 1019,8 33 0 0,0
17.10.2018 01:00:00 11,9 8,9 7,9 14,0 16,8 16,6 5 3 13 7 N 1020,1 40 0 0,0
17.10.2018 00:00:00 12,5 8,1 8,7 14,6 17,0 16,6 7 4 12 7 NE 1020,1 58 0 0,0
16.10.2018 23:00:00 13,9 9,1 9,6 15,2 17,2 16,6 9 5 14 7 NNE 1020,1 60 0 0,0
16.10.2018 22:00:00 15,2 9,5 11,3 15,9 17,4 16,6 8 5 12 7 N 1019,7 65 0 0,0
16.10.2018 21:00:00 15,2 8,1 11,3 16,8 17,5 16,6 4 2 8 4 E 1019,5 70 0 0,0
16.10.2018 20:00:00 17,8 11,0 13,0 17,8 17,5 16,6 5 3 6 3 NE 1018,9 55 0 0,0
16.10.2018 19:00:00 18,8 11,1 15,0 19,0 17,5 16,6 3 2 9 5 SSW 1018,4 62 13 0,0
16.10.2018 18:00:00 20,4 11,1 19,0 20,1 17,3 16,6 6 3 8 4 SW 1018,0 50 4 0,0
16.10.2018 17:00:00 22,7 9,4 22,4 20,8 16,9 16,7 3 1 8 4 ESE 1017,8 60 42 0,0
16.10.2018 16:00:00 22,1 10,5 22,1 20,9 16,5 16,7 4 2 13 7 NE 1017,9 70 2 0,0
16.10.2018 15:00:00 22,0 9,1 24,2 21,2 16,0 16,7 8 4 13 7 NNE 1017,9 35 52 0,0
16.10.2018 14:00:00 21,3 9,0 24,8 18,9 15,7 16,7 9 5 18 10 NNE 1018,2 17 53 0,0
16.10.2018 13:00:00 18,0 9,1 18,7 17,8 15,4 16,7 8 4 15 8 NNE 1018,7 45 55 0,0
16.10.2018 12:00:00 15,7 8,4 19,0 15,2 15,3 16,7 7 4 14 8 NE 1019,2 9 60 0,0
16.10.2018 11:00:00 13,1 8,0 14,5 13,3 15,3 16,7 6 3 10 5 NNE 1019,6 19 60 0,0
16.10.2018 10:00:00 10,7 7,3 11,3 11,8 15,5 16,7 7 4 14 8 NNE 1020,0 29 60 0,0
16.10.2018 09:00:00 8,6 7,3 7,5 11,5 15,7 16,7 9 5 14 8 N 1019,6 26 37 0,0
16.10.2018 08:00:00 8,2 7,2 5,8 11,7 15,9 16,7 8 4 14 8 NE 1019,2 21 0 0,0
16.10.2018 07:00:00 8,2 7,1 6,0 12,0 16,2 16,7 8 5 13 7 N 1018,9 23 0 0,0
16.10.2018 06:00:00 8,5 7,0 5,6 12,4 16,4 16,7 5 3 8 4 NE 1018,7 26 0 0,0
16.10.2018 05:00:00 8,5 7,0 6,6 12,8 16,7 16,7 8 5 16 9 NNE 1018,5 25 0 0,0
16.10.2018 04:00:00 9,6 7,5 7,5 13,3 16,9 16,7 6 3 15 8 N 1018,0 36 0 0,0
16.10.2018 03:00:00 10,2 7,7 7,8 13,7 17,2 16,7 12 6 16 9 N 1017,7 36 0 0,0
16.10.2018 02:00:00 10,7 8,0 7,3 14,2 17,5 16,6 9 5 14 8 NNE 1017,2 47 0 0,0
16.10.2018 01:00:00 11,9 8,0 8,3 14,9 17,7 16,6 7 4 14 8 N 1016,8 54 0 0,0
16.10.2018 00:00:00 13,0 8,2 9,7 15,5 18,0 16,6 8 4 12 6 N 1016,5 58 0 0,0
15.10.2018 23:00:00 14,3 8,1 10,1 16,2 18,3 16,6 4 2 11 6 NE 1016,2 66 0 0,0
15.10.2018 22:00:00 14,8 8,5 11,2 17,1 18,5 16,6 8 4 11 6 N 1015,8 61 0 0,0
15.10.2018 21:00:00 16,2 7,9 11,4 18,1 18,7 16,6 3 2 6 4 NE 1015,3 70 0 0,0
15.10.2018 20:00:00 18,3 7,7 13,2 19,5 18,8 16,6 5 3 11 6 N 1014,6 70 0 0,0
15.10.2018 19:00:00 19,1 7,5 14,6 21,3 18,6 16,6 9 5 14 7 NNE 1013,9 70 17 0,0
15.10.2018 18:00:00 22,7 6,8 21,2 23,3 18,3 16,6 8 4 11 6 N 1013,0 70 58 0,0
15.10.2018 17:00:00 23,9 6,5 24,6 24,1 17,8 16,7 5 3 11 6 N 1012,7 70 60 0,0
15.10.2018 16:00:00 24,0 7,0 28,7 24,0 17,3 16,7 5 3 10 6 NNE 1012,7 70 60 0,0
15.10.2018 15:00:00 23,5 7,0 28,1 22,9 16,7 16,7 4 2 12 7 NNW 1012,8 70 60 0,0
15.10.2018 14:00:00 23,2 7,2 26,4 21,0 16,2 16,7 6 3 13 7 S 1013,1 70 60 0,0
15.10.2018 13:00:00 20,3 9,2 23,9 18,7 15,9 16,7 4 2 9 5 SW 1013,7 66 60 0,0
15.10.2018 12:00:00 17,1 9,3 20,5 16,3 15,8 16,7 6 4 9 5 NNW 1014,1 63 60 0,0
15.10.2018 11:00:00 14,8 8,8 17,1 14,2 15,8 16,7 3 1 11 6 N 1014,3 55 60 0,0
15.10.2018 10:00:00 12,4 7,9 13,7 12,7 16,0 16,6 4 2 11 6 NNE 1014,5 50 60 0,0
15.10.2018 09:00:00 9,5 8,2 7,3 12,3 16,2 16,6 6 3 10 6 NNE 1014,3 37 35 0,0
15.10.2018 08:00:00 9,0 7,8 6,0 12,6 16,5 16,6 6 3 10 5 N 1013,7 38 0 0,0
15.10.2018 07:00:00 9,9 8,2 7,7 13,0 16,7 16,6 5 3 12 6 N 1013,1 42 0 0,0
15.10.2018 06:00:00 10,4 8,3 7,2 13,4 17,0 16,6 7 4 10 5 N 1012,7 51 0 0,0
15.10.2018 05:00:00 11,1 7,9 8,5 13,8 17,2 16,6 5 3 10 6 NNE 1012,5 68 0 0,0
15.10.2018 04:00:00 11,9 8,2 9,0 14,4 17,5 16,6 7 4 11 6 NNE 1012,4 70 0 0,0
15.10.2018 03:00:00 13,3 6,7 9,5 14,8 17,7 16,6 4 2 8 4 NNE 1012,0 70 0 0,0
15.10.2018 02:00:00 14,7 6,5 10,4 15,3 18,0 16,5 5 3 7 4 SSE 1011,8 70 0 0,0
15.10.2018 01:00:00 17,3 6,1 11,9 15,9 18,2 16,5 8 4 12 7 SSW 1011,4 70 0 0,0
15.10.2018 00:00:00 18,3 5,8 12,3 16,4 18,5 16,5 9 5 16 9 S 1011,1 70 0 0,0
14.10.2018 23:00:00 18,1 5,7 12,7 17,1 18,7 16,5 7 4 13 7 S 1011,2 70 0 0,0
14.10.2018 22:00:00 18,4 5,8 14,1 17,8 19,0 16,5 11 6 22 12 SSW 1010,7 70 0 0,0
14.10.2018 21:00:00 17,0 7,5 13,4 18,9 19,2 16,5 13 7 18 10 SE 1010,8 70 0 0,0
14.10.2018 20:00:00 19,6 4,9 14,9 20,3 19,2 16,5 14 8 37 20 SSE 1010,1 70 0 0,0
14.10.2018 19:00:00 21,0 8,5 17,4 22,2 19,1 16,5 20 11 32 17 SSE 1009,5 70 13 0,0
14.10.2018 18:00:00 23,2 9,4 24,1 24,2 18,8 16,5 18 10 31 17 SSE 1008,9 70 60 0,0
14.10.2018 17:00:00 24,4 9,3 25,2 25,1 18,3 16,5 21 11 33 18 SE 1008,8 70 60 0,0
14.10.2018 16:00:00 25,2 9,8 28,7 25,0 17,7 16,5 20 11 40 21 S 1009,1 70 60 0,0

tt = temperature
td = dewpoint
tt 5cm = temperature 5cm
tt -5cm = temperature -5cm
tt -20cm = temperature -20cm
tt -100cm = temperature -100cm
ff = wind speed
fx = gusts
dd = wind direction
ppp = reduced air pressure
vv = visibility
sd = sunshine duration
rr = precipitation

Next stations